Location: Utrecht
(52.0907°N, 5.1214°E)
Time: 13:13:53
(UTC+02:00)

ISS - Visible Passes

Search period start: 01 October 2022 00:00
Search period end: 11 October 2022 00:00
Orbit: 414 x 417 km, 51.6° (Epoch: 01 October)

Date Brightness Start Highest point End Pass type
(mag) Time Alt. Az. Time Alt. Az. Time Alt. Az.
01 Oct -2.3 20:30:27 10° W 20:33:29 31° SSW 20:35:58 13° SSE visible
02 Oct -2.7 19:41:33 10° W 19:44:46 42° SSW 19:47:57 10° SE visible
02 Oct -1.0 21:19:33 10° WSW 21:20:49 12° SW 21:22:06 10° SSW visible
03 Oct -1.2 20:29:56 10° W 20:32:12 17° SW 20:34:29 10° S visible
04 Oct -1.6 19:40:43 10° W 19:43:31 24° SSW 19:46:17 10° SSE visible
06 Oct -0.8 19:40:25 10° WSW 19:42:00 13° SW 19:43:34 10° SSW visible
